• In Italy
  • List of Countries
  • For 7 days
  • Water Temperature
  • Satellite Maps
  • Weather Map
  • Weather Widgets
  • user-avatar
    Login

    Hourly Weather Djaipur

    Today, 19 November, Sunday

    Time Temperature Precipitation Wind Pressure Humidity
    00:00 +19°C° 0 mm 2 mps 727 mmHg 40%
    01:00 +19°C° 0 mm 2 mps 727 mmHg 38%
    02:00 +19°C° 0 mm 2 mps 727 mmHg 37%
    03:00 +18°C° 0 mm 3 mps 727 mmHg 34%
    04:00 +18°C° 0 mm 3 mps 727 mmHg 32%
    05:00 +18°C° 0 mm 2 mps 727 mmHg 36%
    06:00 +18°C° 0 mm 2 mps 727 mmHg 33%
    07:00 +19°C° 0 mm 3 mps 727 mmHg 30%
    08:00 +20°C° 0 mm 3 mps 728 mmHg 26%
    09:00 +22°C° 0 mm 3 mps 728 mmHg 25%
    10:00 +25°C° 0 mm 3 mps 728 mmHg 23%
    11:00 +27°C° 0 mm 2 mps 729 mmHg 22%
    12:00 +27°C° 0 mm 2 mps 728 mmHg 22%
    13:00 +27°C° 0 mm 2 mps 728 mmHg 23%
    14:00 +28°C° 0 mm 1 mps 727 mmHg 23%
    15:00 +27°C° 0 mm 1 mps 727 mmHg 25%
    16:00 +26°C° 0 mm 2 mps 727 mmHg 27%
    17:00 +24°C° 0 mm 2 mps 727 mmHg 29%
    18:00 +24°C° 0 mm 2 mps 727 mmHg 28%
    19:00 +22°C° 0 mm 3 mps 727 mmHg 26%
    20:00 +22°C° 0 mm 3 mps 728 mmHg 25%
    21:00 +21°C° 0 mm 3 mps 728 mmHg 23%
    22:00 +20°C° 0 mm 3 mps 728 mmHg 22%
    23:00 +19°C° 0 mm 3 mps 728 mmHg 20%

    Tomorrow, 20 November, Monday

    Time Temperature Precipitation Wind Pressure Humidity
    00:00 +18°C° 0 mm 3 mps 728 mmHg 20%
    01:00 +18°C° 0 mm 3 mps 728 mmHg 20%
    02:00 +17°C° 0 mm 3 mps 727 mmHg 19%
    03:00 +17°C° 0 mm 3 mps 727 mmHg 20%
    04:00 +17°C° 0 mm 3 mps 728 mmHg 20%
    05:00 +17°C° 0 mm 3 mps 728 mmHg 21%
    06:00 +18°C° 0 mm 3 mps 728 mmHg 20%
    07:00 +19°C° 0 mm 3 mps 729 mmHg 20%
    08:00 +20°C° 0 mm 3 mps 729 mmHg 19%
    09:00 +21°C° 0 mm 2 mps 729 mmHg 18%
    10:00 +24°C° 0 mm 2 mps 730 mmHg 16%
    11:00 +26°C° 0 mm 2 mps 730 mmHg 14%
    12:00 +27°C° 0 mm 2 mps 729 mmHg 15%
    13:00 +27°C° 0 mm 3 mps 728 mmHg 15%
    14:00 +28°C° 0 mm 3 mps 728 mmHg 15%
    15:00 +26°C° 0 mm 3 mps 727 mmHg 16%
    16:00 +25°C° 0 mm 3 mps 727 mmHg 17%
    17:00 +24°C° 0 mm 3 mps 727 mmHg 18%
    18:00 +22°C° 0 mm 3 mps 727 mmHg 17%
    19:00 +20°C° 0 mm 3 mps 727 mmHg 17%
    20:00 +19°C° 0 mm 3 mps 728 mmHg 16%
    21:00 +18°C° 0 mm 3 mps 728 mmHg 17%
    22:00 +18°C° 0 mm 3 mps 727 mmHg 17%
    23:00 +17°C° 0 mm 2 mps 727 mmHg 18%

    Day after tomorrow, 21 November, Tuesday

    Time Temperature Precipitation Wind Pressure Humidity
    00:00 +16°C° 0 mm 2 mps 727 mmHg 18%
    01:00 +16°C° 0 mm 2 mps 727 mmHg 19%
    02:00 +16°C° 0 mm 2 mps 727 mmHg 19%
    03:00 +15°C° 0 mm 2 mps 726 mmHg 20%
    04:00 +15°C° 0 mm 2 mps 726 mmHg 20%
    05:00 +15°C° 0 mm 2 mps 726 mmHg 20%
    06:00 +16°C° 0 mm 2 mps 727 mmHg 20%
    07:00 +17°C° 0 mm 2 mps 727 mmHg 19%
    08:00 +20°C° 0 mm 1 mps 728 mmHg 18%
    09:00 +21°C° 0 mm 1 mps 728 mmHg 16%
    10:00 +23°C° 0 mm 1 mps 728 mmHg 14%
    11:00 +25°C° 0 mm 1 mps 728 mmHg 13%
    12:00 +26°C° 0 mm 2 mps 727 mmHg 12%
    13:00 +27°C° 0 mm 2 mps 727 mmHg 11%
    14:00 +27°C° 0 mm 3 mps 726 mmHg 10%
    15:00 +26°C° 0 mm 3 mps 726 mmHg 12%
    16:00 +24°C° 0 mm 3 mps 726 mmHg 13%
    17:00 +23°C° 0 mm 2 mps 725 mmHg 14%
    18:00 +21°C° 0 mm 2 mps 726 mmHg 15%
    19:00 +20°C° 0 mm 2 mps 726 mmHg 16%
    20:00 +18°C° 0 mm 2 mps 727 mmHg 16%
    21:00 +18°C° 0 mm 2 mps 726 mmHg 18%
    22:00 +17°C° 0 mm 2 mps 726 mmHg 19%
    23:00 +17°C° 0 mm 2 mps 726 mmHg 20%

    22 November, Wednesday

    Time Temperature Precipitation Wind Pressure Humidity
    00:00 +16°C° 0 mm 2 mps 726 mmHg 21%
    01:00 +16°C° 0 mm 2 mps 726 mmHg 22%
    02:00 +15°C° 0 mm 2 mps 725 mmHg 22%
    03:00 +15°C° 0 mm 2 mps 725 mmHg 23%
    04:00 +15°C° 0 mm 2 mps 725 mmHg 24%
    05:00 +14°C° 0 mm 2 mps 725 mmHg 25%
    06:00 +16°C° 0 mm 2 mps 726 mmHg 23%
    07:00 +18°C° 0 mm 1 mps 727 mmHg 21%
    08:00 +20°C° 0 mm 1 mps 727 mmHg 20%
    09:00 +22°C° 0 mm 1 mps 727 mmHg 17%
    10:00 +24°C° 0 mm 1 mps 727 mmHg 14%
    11:00 +26°C° 0 mm 1 mps 727 mmHg 12%
    12:00 +26°C° 0 mm 2 mps 727 mmHg 11%
    13:00 +27°C° 0 mm 2 mps 726 mmHg 10%
    14:00 +28°C° 0 mm 2 mps 726 mmHg 9%
    15:00 +26°C° 0 mm 2 mps 725 mmHg 10%
    16:00 +24°C° 0 mm 2 mps 725 mmHg 11%
    17:00 +23°C° 0 mm 2 mps 725 mmHg 13%
    18:00 +21°C° 0 mm 2 mps 725 mmHg 13%
    19:00 +20°C° 0 mm 2 mps 726 mmHg 13%
    20:00 +19°C° 0 mm 3 mps 726 mmHg 13%
    21:00 +18°C° 0 mm 2 mps 726 mmHg 14%
    22:00 +17°C° 0 mm 2 mps 726 mmHg 14%
    23:00 +16°C° 0 mm 2 mps 726 mmHg 15%

    23 November, Thursday

    Time Temperature Precipitation Wind Pressure Humidity
    00:00 +16°C° 0 mm 2 mps 725 mmHg 15%
    01:00 +15°C° 0 mm 2 mps 725 mmHg 16%
    02:00 +15°C° 0 mm 1 mps 725 mmHg 16%
    03:00 +14°C° 0 mm 1 mps 725 mmHg 17%
    04:00 +14°C° 0 mm 1 mps 725 mmHg 17%
    05:00 +14°C° 0 mm 1 mps 725 mmHg 17%
    06:00 +15°C° 0 mm 1 mps 725 mmHg 16%
    07:00 +18°C° 0 mm 1 mps 726 mmHg 15%
    08:00 +20°C° 0 mm 1 mps 727 mmHg 14%
    09:00 +22°C° 0 mm 1 mps 727 mmHg 12%
    10:00 +24°C° 0 mm 1 mps 727 mmHg 11%
    11:00 +26°C° 0 mm 1 mps 727 mmHg 9%
    12:00 +27°C° 0 mm 1 mps 726 mmHg 8%
    13:00 +27°C° 0 mm 2 mps 726 mmHg 7%
    14:00 +28°C° 0 mm 2 mps 725 mmHg 7%
    15:00 +26°C° 0 mm 2 mps 725 mmHg 8%
    16:00 +24°C° 0 mm 2 mps 725 mmHg 10%
    17:00 +23°C° 0 mm 2 mps 725 mmHg 12%
    18:00 +21°C° 0 mm 2 mps 725 mmHg 11%
    19:00 +20°C° 0 mm 2 mps 725 mmHg 11%
    20:00 +19°C° 0 mm 2 mps 726 mmHg 11%
    21:00 +18°C° 0 mm 2 mps 726 mmHg 11%
    22:00 +17°C° 0 mm 2 mps 726 mmHg 11%
    23:00 +17°C° 0 mm 2 mps 725 mmHg 11%

    24 November, Friday

    Time Temperature Precipitation Wind Pressure Humidity
    00:00 +16°C° 0 mm 2 mps 725 mmHg 11%
    01:00 +16°C° 0 mm 1 mps 725 mmHg 12%
    02:00 +15°C° 0 mm 1 mps 725 mmHg 12%
    03:00 +15°C° 0 mm 1 mps 725 mmHg 12%
    04:00 +14°C° 0 mm 1 mps 725 mmHg 13%
    05:00 +14°C° 0 mm 1 mps 725 mmHg 13%
    06:00 +16°C° 0 mm 1 mps 726 mmHg 13%
    07:00 +19°C° 0 mm 1 mps 726 mmHg 12%
    08:00 +21°C° 0 mm 1 mps 727 mmHg 12%
    09:00 +23°C° 0 mm 1 mps 727 mmHg 10%
    10:00 +25°C° 0 mm 1 mps 727 mmHg 8%
    11:00 +27°C° 0 mm 1 mps 727 mmHg 7%
    12:00 +28°C° 0 mm 1 mps 727 mmHg 6%
    13:00 +28°C° 0 mm 2 mps 726 mmHg 6%
    14:00 +29°C° 0 mm 2 mps 726 mmHg 6%
    15:00 +27°C° 0 mm 2 mps 726 mmHg 7%
    16:00 +25°C° 0 mm 2 mps 725 mmHg 9%
    17:00 +23°C° 0 mm 2 mps 725 mmHg 11%
    18:00 +21°C° 0 mm 2 mps 725 mmHg 10%
    19:00 +20°C° 0 mm 2 mps 726 mmHg 10%
    20:00 +19°C° 0 mm 2 mps 726 mmHg 10%
    21:00 +18°C° 0 mm 2 mps 726 mmHg 10%
    22:00 +18°C° 0 mm 2 mps 726 mmHg 11%
    23:00 +17°C° 0 mm 2 mps 726 mmHg 11%
    Show more